INMARSAT 3-F2

Last updated on Tue Jun 17 2025 00:02:43 GMT+0000 (Coordinated Universal Time)

1 24307U 96053A 25167.54905984 -.00000165 00000+0 00000+0 0 9995 2 24307 9.0261 57.5640 0007027 32.1476 172.8454 1.00005020105265
UTC large
Height (km)
Speed (km/s)
/
Latitude / Longitude
Inclination (degrees)
Orbital Period (minutes)
Azimuth
Elevation
Range (km)
Doppler Factor

Next 0 passes for location: London (51.5072 / 0.1276)

Sorry there are no passes over London.